THORAD DELTA 1 DEB, 8784

Orbit data source: Space-Track

THORAD DELTA 1 DEB, 8784 is space debris in SSO originally from a launch on Fri, 15 Nov 1974 UTC launched from the Air Force Western Test Range (AFWTR). Debris objects in space refer to the collection of defunct objects orbiting the Earth. Examples of debris include non-operational satellites, rocket bodies, and fragments generated from explosions, collisions, or faulty payload assembly.

Loading next visibility...
Identifier
8784, 1974-089DL
Orbit
SSO
Country
Flag of USUS
Related business
Manufacturer
Unknown
Mission
Spacecraft
Bus & Motor
Unknown
Mass
Unknown
Launch date (UTC)
1974-11-15 (52 years ago)
Launch vehicle
Unknown
Launch site
Air Force Western Test Range (AFWTR)
Object type
Payload
Rocket body
Debris
Shape & HBR
Unknown shape, 0.1 m
Radar Cross Section
Medium (>0.1 m² and <1 m²)

Expand to show TLE details & history
Last TLE update: 1 day ago

TLE from 1 day ago
0 THORAD DELTA 1 DEB
1 08784U 74089DL  26207.11940008  .00006412  00000-0  86497-2 0  9994
2 08784 100.9619 257.8823 0236003 113.3450 275.7950 13.49245471537629
Epoch: 2026-07-26T02:51Z
TLE epoch observation values (Epoch: 2026-07-26T02:51:56.166Z)
Latitude
25.95783°
Longitude
-94.30632°
Altitude
1,064.389 km
Speed
7.329 km/s
True Right ascension
16h 49m 59s
True Declination
25° 49' 42"
Sunlit
Object was in daylight at epoch
Visualization orbit readout
Latitude
Unknown
Longitude
Unknown
Altitude
Unknown
Speed
Unknown
Apparent Right ascension
Unknown
Apparent Declination
Unknown
Sunlit
N/A
Visualization observer readout
Local Sidereal Time
18:30:41
Azimuth
Unknown
Elevation
Unknown
Doppler factor
Unknown
Orbital elements
Apogee altitude
1,248.24 km
Perigee altitude
896.57 km
Semi-major axis
7,450.542 km
Eccentricity
0.0236
Inclination
100.9619°
RAAN
257.8823°
Arg. of periapsis
113.345°
True anomaly
273.09739°
Mean anomaly
275.795°
Eccentric anomaly
274.44687°
Mean motion
3.3749 °/min
Orbital period
106.67 mins
BSTAR
0.0086497
Loading maneuver chart data...
Computing Atmospheric mass density...
Loading historical data...
Loading historical data...
Loading historical data...
Loading historical data...
Loading historical data...
Loading historical data...
Loading historical data...

Documentation

Showing up to 5 results
|